TimeEDT,TemperatureF,Dew PointF,Humidity,Sea Level PressureIn,VisibilityMPH,Wind Direction,Wind SpeedMPH,Gust SpeedMPH,PrecipitationIn,Events,Conditions,WindDirDegrees,DateUTC
12:53 AM,33.1,32.0,96,30.14,10.0,Calm,Calm,-,N/A,,Clear,0,2011-10-28 04:53:00
1:53 AM,32.0,30.0,92,30.14,10.0,Calm,Calm,-,N/A,,Clear,0,2011-10-28 05:53:00
2:27 AM,30.2,28.4,93,30.13,2.5,Calm,Calm,-,N/A,,Clear,0,2011-10-28 06:27:00
2:35 AM,30.2,28.4,93,30.13,5.0,Calm,Calm,-,N/A,,Clear,0,2011-10-28 06:35:00
2:53 AM,-9999,-9999,N/A,30.13,7.0,Calm,Calm,-,N/A,,Clear,0,2011-10-28 06:53:00
3:33 AM,28.4,26.6,93,30.14,1.8,Calm,Calm,-,N/A,,Clear,0,2011-10-28 07:33:00
3:44 AM,28.4,26.6,93,30.13,4.0,Calm,Calm,-,N/A,,Clear,0,2011-10-28 07:44:00
3:53 AM,30.0,28.0,92,30.15,4.0,Calm,Calm,-,N/A,,Clear,0,2011-10-28 07:53:00
3:58 AM,28.4,28.4,100,30.13,1.8,Calm,Calm,-,N/A,,Clear,0,2011-10-28 07:58:00
4:03 AM,28.4,28.4,100,30.14,0.8,Calm,Calm,-,N/A,,Clear,0,2011-10-28 08:03:00
4:14 AM,28.4,26.6,93,30.14,1.5,Calm,Calm,-,N/A,,Clear,0,2011-10-28 08:14:00
4:16 AM,28.4,26.6,93,30.14,3.0,Calm,Calm,-,N/A,,Clear,0,2011-10-28 08:16:00
4:29 AM,28.4,26.6,93,30.14,1.8,Calm,Calm,-,N/A,,Clear,0,2011-10-28 08:29:00
4:40 AM,30.2,28.4,93,30.14,3.0,Calm,Calm,-,N/A,,Clear,0,2011-10-28 08:40:00
4:53 AM,28.0,27.0,96,30.17,9.0,Calm,Calm,-,N/A,,Clear,0,2011-10-28 08:53:00
5:53 AM,28.0,27.0,96,30.18,7.0,Calm,Calm,-,N/A,,Clear,0,2011-10-28 09:53:00
6:42 AM,-9999,-9999,N/A,30.17,1.2,Calm,Calm,-,N/A,,Clear,0,2011-10-28 10:42:00
6:50 AM,-9999,-9999,N/A,30.17,2.5,Calm,Calm,-,N/A,,Clear,0,2011-10-28 10:50:00
6:53 AM,-9999,-9999,N/A,30.17,7.0,Calm,Calm,-,N/A,,Clear,0,2011-10-28 10:53:00
7:20 AM,26.6,26.6,100,30.17,1.5,Calm,Calm,-,N/A,,Clear,0,2011-10-28 11:20:00
7:23 AM,26.6,26.6,100,30.17,0.8,Calm,Calm,-,N/A,,Clear,0,2011-10-28 11:23:00
7:43 AM,26.6,26.6,100,30.17,2.0,Calm,Calm,-,N/A,,Clear,0,2011-10-28 11:43:00
7:50 AM,26.6,24.8,93,30.17,10.0,Calm,Calm,-,N/A,,Clear,0,2011-10-28 11:50:00
7:53 AM,26.1,24.1,92,30.20,10.0,Calm,Calm,-,N/A,,Clear,0,2011-10-28 11:53:00
8:53 AM,28.9,28.0,96,30.22,10.0,Calm,Calm,-,N/A,,Clear,0,2011-10-28 12:53:00
9:53 AM,41.0,37.0,86,30.22,10.0,Calm,Calm,-,N/A,,Clear,0,2011-10-28 13:53:00
10:53 AM,45.0,36.0,71,30.22,10.0,Calm,Calm,-,N/A,,Clear,0,2011-10-28 14:53:00
11:53 AM,48.0,36.0,63,30.22,10.0,Calm,Calm,-,N/A,,Clear,0,2011-10-28 15:53:00
12:53 PM,50.0,34.0,54,30.20,10.0,Variable,4.6,-,N/A,,Clear,0,2011-10-28 16:53:00
1:53 PM,48.9,32.0,52,30.17,10.0,WSW,6.9,-,N/A,,Clear,240,2011-10-28 17:53:00
2:53 PM,51.1,30.9,46,30.12,10.0,Calm,Calm,-,N/A,,Scattered Clouds,0,2011-10-28 18:53:00
3:53 PM,50.0,30.9,48,30.13,10.0,Calm,Calm,-,N/A,,Partly Cloudy,0,2011-10-28 19:53:00
4:53 PM,48.9,30.0,48,30.12,10.0,Calm,Calm,-,N/A,,Partly Cloudy,0,2011-10-28 20:53:00
5:53 PM,48.9,30.0,48,30.12,10.0,Calm,Calm,-,N/A,,Clear,0,2011-10-28 21:53:00
6:53 PM,45.0,30.9,58,30.11,10.0,SSE,3.5,-,N/A,,Clear,160,2011-10-28 22:53:00
7:53 PM,42.1,33.1,70,30.14,10.0,SSE,5.8,-,N/A,,Clear,150,2011-10-28 23:53:00
8:53 PM,41.0,35.1,79,30.14,10.0,Calm,Calm,-,N/A,,Clear,0,2011-10-29 00:53:00
9:53 PM,35.1,33.1,92,30.13,10.0,Calm,Calm,-,N/A,,Partly Cloudy,0,2011-10-29 01:53:00
10:53 PM,34.0,32.0,92,30.12,10.0,Calm,Calm,-,N/A,,Scattered Clouds,0,2011-10-29 02:53:00
11:08 PM,33.8,30.2,87,30.10,10.0,WNW,3.5,117.4,N/A,,Squalls,300,2011-10-29 03:08:00
11:53 PM,-9999,-9999,N/A,30.10,8.0,Calm,Calm,-,N/A,,Overcast,0,2011-10-29 03:53:00